When you browse on this site, cookies collect data to enhance your experience and personalize the content and advertising you see.
Visit our Privacy Policy to learn more. By continuing to use the site, you agree to this use of cookies and data.
  • In United Kingdom
  • List of Countries
  • For 7 days
  • Water Temperature
  • Satellite Maps
  • Weather Map
  • Weather Widgets
  • user-avatar
    Login

    Hourly Weather Santiago Yaitepec

    Today, 22 February, Friday

    Time Temperature Precipitation Wind Pressure Humidity
    00:00 +12°C° 0 mm 1 mps 598 mmHg 90%
    01:00 +11°C° 0 mm 1 mps 598 mmHg 89%
    02:00 +11°C° 0 mm 1 mps 598 mmHg 89%
    03:00 +11°C° 0 mm 1 mps 598 mmHg 89%
    04:00 +11°C° 0 mm 1 mps 598 mmHg 89%
    05:00 +11°C° 0 mm 1 mps 597 mmHg 88%
    06:00 +11°C° 0 mm 1 mps 597 mmHg 87%
    07:00 +13°C° 0 mm 1 mps 599 mmHg 76%
    08:00 +16°C° 0 mm 1 mps 601 mmHg 65%
    09:00 +17°C° 0 mm 0 mps 602 mmHg 53%
    10:00 +21°C° 0 mm 1 mps 603 mmHg 47%
    11:00 +23°C° 0 mm 1 mps 604 mmHg 40%
    12:00 +24°C° 0 mm 2 mps 605 mmHg 33%
    13:00 +24°C° 0 mm 2 mps 604 mmHg 34%
    14:00 +24°C° 0 mm 2 mps 603 mmHg 35%
    15:00 +24°C° 0 mm 3 mps 602 mmHg 36%
    16:00 +21°C° 0 mm 2 mps 601 mmHg 43%
    17:00 +20°C° 0 mm 2 mps 601 mmHg 50%
    18:00 +19°C° 0 mm 1 mps 600 mmHg 57%
    19:00 +16°C° 0 mm 1 mps 600 mmHg 62%
    20:00 +15°C° 0 mm 1 mps 600 mmHg 68%
    21:00 +14°C° 0 mm 1 mps 600 mmHg 73%
    22:00 +14°C° 0 mm 1 mps 600 mmHg 73%
    23:00 +13°C° 0 mm 1 mps 600 mmHg 73%

    Tomorrow, 23 February, Saturday

    Time Temperature Precipitation Wind Pressure Humidity
    00:00 +13°C° 0 mm 1 mps 600 mmHg 72%
    01:00 +13°C° 0 mm 1 mps 600 mmHg 73%
    02:00 +13°C° 0 mm 1 mps 599 mmHg 73%
    03:00 +12°C° 0 mm 1 mps 599 mmHg 74%
    04:00 +12°C° 0 mm 1 mps 599 mmHg 73%
    05:00 +12°C° 0 mm 1 mps 599 mmHg 73%
    06:00 +12°C° 0 mm 1 mps 599 mmHg 72%
    07:00 +15°C° 0 mm 1 mps 600 mmHg 63%
    08:00 +16°C° 0 mm 0 mps 602 mmHg 54%
    09:00 +19°C° 0 mm 0 mps 603 mmHg 45%
    10:00 +22°C° 0 mm 1 mps 604 mmHg 41%
    11:00 +24°C° 0 mm 1 mps 604 mmHg 37%
    12:00 +25°C° 0 mm 2 mps 605 mmHg 32%
    13:00 +25°C° 0 mm 2 mps 604 mmHg 33%
    14:00 +25°C° 0 mm 2 mps 603 mmHg 34%
    15:00 +24°C° 0 mm 2 mps 603 mmHg 35%
    16:00 +23°C° 0 mm 2 mps 602 mmHg 42%
    17:00 +20°C° 0 mm 2 mps 601 mmHg 49%
    18:00 +19°C° 0 mm 1 mps 601 mmHg 56%
    19:00 +18°C° 0 mm 1 mps 600 mmHg 64%
    20:00 +15°C° 0 mm 1 mps 600 mmHg 71%
    21:00 +12°C° 0 mm 0 mps 600 mmHg 79%
    22:00 +13°C° 0 mm 1 mps 600 mmHg 78%
    23:00 +13°C° 0 mm 1 mps 601 mmHg 77%

    Day after tomorrow, 24 February, Sunday

    Time Temperature Precipitation Wind Pressure Humidity
    00:00 +13°C° 0 mm 1 mps 601 mmHg 75%
    01:00 +13°C° 0 mm 1 mps 600 mmHg 74%
    02:00 +13°C° 0 mm 1 mps 600 mmHg 72%
    03:00 +13°C° 0 mm 1 mps 599 mmHg 70%
    04:00 +13°C° 0 mm 1 mps 599 mmHg 69%
    05:00 +12°C° 0 mm 1 mps 599 mmHg 69%
    06:00 +12°C° 0 mm 1 mps 599 mmHg 68%
    07:00 +15°C° 0 mm 1 mps 601 mmHg 61%
    08:00 +18°C° 0 mm 1 mps 602 mmHg 54%
    09:00 +21°C° 0 mm 1 mps 604 mmHg 47%
    10:00 +22°C° 0 mm 1 mps 605 mmHg 43%
    11:00 +24°C° 0 mm 1 mps 605 mmHg 39%
    12:00 +26°C° 0 mm 1 mps 606 mmHg 34%
    13:00 +25°C° 0 mm 2 mps 605 mmHg 37%
    14:00 +24°C° 0 mm 2 mps 603 mmHg 40%
    15:00 +23°C° 0 mm 2 mps 602 mmHg 43%
    16:00 +21°C° 0 mm 2 mps 601 mmHg 49%
    17:00 +20°C° 0 mm 2 mps 601 mmHg 56%
    18:00 +19°C° 0 mm 1 mps 600 mmHg 62%
    19:00 +18°C° 0.5 mm 1 mps 600 mmHg 68%
    20:00 +15°C° 0.5 mm 1 mps 600 mmHg 75%
    21:00 +14°C° 0.5 mm 1 mps 600 mmHg 81%
    22:00 +14°C° 0 mm 1 mps 600 mmHg 79%
    23:00 +14°C° 0 mm 1 mps 601 mmHg 76%

    25 February, Monday

    Time Temperature Precipitation Wind Pressure Humidity
    00:00 +14°C° 0 mm 1 mps 601 mmHg 73%
    01:00 +14°C° 0 mm 1 mps 600 mmHg 73%
    02:00 +13°C° 0 mm 2 mps 600 mmHg 73%
    03:00 +13°C° 0 mm 2 mps 599 mmHg 73%
    04:00 +13°C° 0 mm 2 mps 599 mmHg 73%
    05:00 +13°C° 0 mm 2 mps 599 mmHg 74%
    06:00 +12°C° 0 mm 2 mps 599 mmHg 74%
    07:00 +15°C° 0 mm 2 mps 601 mmHg 66%
    08:00 +18°C° 0 mm 1 mps 602 mmHg 58%
    09:00 +20°C° 0 mm 1 mps 603 mmHg 49%
    10:00 +22°C° 0 mm 1 mps 604 mmHg 42%
    11:00 +25°C° 0 mm 1 mps 605 mmHg 35%
    12:00 +27°C° 0 mm 1 mps 606 mmHg 27%
    13:00 +27°C° 0 mm 1 mps 605 mmHg 29%
    14:00 +27°C° 0 mm 2 mps 604 mmHg 31%
    15:00 +26°C° 0 mm 2 mps 603 mmHg 32%
    16:00 +24°C° 0 mm 2 mps 602 mmHg 41%
    17:00 +21°C° 0 mm 2 mps 601 mmHg 50%
    18:00 +19°C° 0 mm 2 mps 600 mmHg 60%
    19:00 +18°C° 0.4 mm 1 mps 600 mmHg 68%
    20:00 +16°C° 0.4 mm 1 mps 600 mmHg 76%
    21:00 +13°C° 0.4 mm 0 mps 600 mmHg 84%
    22:00 +14°C° 0 mm 1 mps 600 mmHg 82%
    23:00 +14°C° 0 mm 1 mps 600 mmHg 79%

    26 February, Tuesday

    Time Temperature Precipitation Wind Pressure Humidity
    00:00 +13°C° 0 mm 1 mps 600 mmHg 77%
    01:00 +13°C° 0 mm 1 mps 600 mmHg 76%
    02:00 +13°C° 0 mm 1 mps 599 mmHg 75%
    03:00 +13°C° 0 mm 1 mps 599 mmHg 73%
    04:00 +13°C° 0 mm 1 mps 599 mmHg 73%
    05:00 +12°C° 0 mm 2 mps 599 mmHg 72%
    06:00 +12°C° 0 mm 2 mps 599 mmHg 72%
    07:00 +15°C° 0 mm 1 mps 601 mmHg 63%
    08:00 +18°C° 0 mm 1 mps 602 mmHg 55%
    09:00 +20°C° 0 mm 1 mps 603 mmHg 47%
    10:00 +23°C° 0 mm 1 mps 604 mmHg 41%
    11:00 +25°C° 0 mm 1 mps 605 mmHg 36%
    12:00 +27°C° 0 mm 1 mps 606 mmHg 30%
    13:00 +26°C° 0 mm 2 mps 604 mmHg 33%
    14:00 +25°C° 0 mm 2 mps 603 mmHg 35%
    15:00 +24°C° 0 mm 3 mps 602 mmHg 38%
    16:00 +23°C° 0.1 mm 2 mps 602 mmHg 46%
    17:00 +20°C° 0.1 mm 2 mps 601 mmHg 54%
    18:00 +19°C° 0.1 mm 1 mps 600 mmHg 61%
    19:00 +18°C° 0.3 mm 1 mps 600 mmHg 69%
    20:00 +15°C° 0.3 mm 1 mps 600 mmHg 77%
    21:00 +12°C° 0.3 mm 0 mps 600 mmHg 84%
    22:00 +12°C° 0 mm 0 mps 600 mmHg 84%
    23:00 +13°C° 0 mm 1 mps 600 mmHg 84%

    27 February, Wednesday

    Time Temperature Precipitation Wind Pressure Humidity
    00:00 +13°C° 0 mm 1 mps 600 mmHg 84%
    01:00 +13°C° 0.1 mm 1 mps 600 mmHg 83%
    02:00 +13°C° 0.1 mm 1 mps 599 mmHg 82%
    03:00 +13°C° 0.1 mm 1 mps 599 mmHg 81%
    04:00 +13°C° 0.4 mm 1 mps 599 mmHg 80%
    05:00 +13°C° 0.4 mm 1 mps 599 mmHg 80%
    06:00 +13°C° 0.4 mm 1 mps 599 mmHg 79%
    07:00 +15°C° 0.1 mm 1 mps 601 mmHg 70%
    08:00 +16°C° 0.1 mm 0 mps 602 mmHg 62%
    09:00 +19°C° 0.1 mm 0 mps 603 mmHg 53%
    10:00 +22°C° 0.2 mm 1 mps 603 mmHg 50%
    11:00 +22°C° 0.2 mm 1 mps 603 mmHg 47%
    12:00 +23°C° 0.2 mm 2 mps 603 mmHg 44%
    13:00 +23°C° 0.4 mm 2 mps 603 mmHg 45%
    14:00 +21°C° 0.4 mm 2 mps 602 mmHg 46%
    15:00 +21°C° 0.4 mm 2 mps 601 mmHg 47%
    16:00 +20°C° 0.8 mm 2 mps 601 mmHg 52%
    17:00 +19°C° 0.8 mm 2 mps 600 mmHg 57%
    18:00 +17°C° 0.8 mm 2 mps 600 mmHg 62%
    19:00 +16°C° 1.1 mm 1 mps 600 mmHg 68%
    20:00 +14°C° 1.1 mm 1 mps 599 mmHg 73%
    21:00 +13°C° 1.1 mm 1 mps 599 mmHg 79%
    22:00 +13°C° 0.4 mm 1 mps 599 mmHg 79%
    23:00 +12°C° 0.4 mm 1 mps 599 mmHg 78%
    Show more